Year,Month,Day,Hour,Minute,Value (Times are PST for temperature in C)
2016,08,14,00,00,17.20
2016,08,14,00,01,17.20
2016,08,14,00,02,17.10
2016,08,14,00,03,17.10
2016,08,14,00,04,17.10
2016,08,14,00,05,17.10
2016,08,14,00,06,17.10
2016,08,14,00,07,17.10
2016,08,14,00,08,17.10
2016,08,14,00,09,17.00
2016,08,14,00,10,17.00
2016,08,14,00,11,17.00
2016,08,14,00,12,17.00
2016,08,14,00,13,16.90
2016,08,14,00,14,16.90
2016,08,14,00,15,16.90
2016,08,14,00,16,16.90
2016,08,14,00,17,16.90
2016,08,14,00,18,16.90
2016,08,14,00,19,16.80
2016,08,14,00,20,16.80
2016,08,14,00,21,16.80
2016,08,14,00,22,16.80
2016,08,14,00,23,16.80
2016,08,14,00,24,16.80
2016,08,14,00,25,16.80
2016,08,14,00,26,16.90
2016,08,14,00,27,16.90
2016,08,14,00,28,17.00
2016,08,14,00,29,17.00
2016,08,14,00,30,17.10
2016,08,14,00,31,17.10
2016,08,14,00,32,17.20
2016,08,14,00,33,17.20
2016,08,14,00,34,17.30
2016,08,14,00,35,17.30
2016,08,14,00,36,17.40
2016,08,14,00,37,17.40
2016,08,14,00,38,17.50
2016,08,14,00,39,17.50
2016,08,14,00,40,17.50
2016,08,14,00,41,17.60
2016,08,14,00,42,17.60
2016,08,14,00,43,17.60
2016,08,14,00,44,17.60
2016,08,14,00,45,17.60
2016,08,14,00,46,17.60
2016,08,14,00,47,17.60
2016,08,14,00,48,17.60
2016,08,14,00,49,17.60
2016,08,14,00,50,17.60
2016,08,14,00,51,17.60
2016,08,14,00,52,17.60
2016,08,14,00,53,17.60
2016,08,14,00,54,17.60
2016,08,14,00,55,17.70
2016,08,14,00,56,17.60
2016,08,14,00,57,17.60
2016,08,14,00,58,17.60
2016,08,14,00,59,17.60
2016,08,14,01,00,17.60
2016,08,14,01,01,17.60
2016,08,14,01,02,17.60
2016,08,14,01,03,17.60
2016,08,14,01,04,17.50
2016,08,14,01,05,17.50
2016,08,14,01,06,17.40
2016,08,14,01,07,17.30
2016,08,14,01,08,17.30
2016,08,14,01,09,17.20
2016,08,14,01,10,17.10
2016,08,14,01,11,17.10
2016,08,14,01,12,17.00
2016,08,14,01,13,17.00
2016,08,14,01,14,16.90
2016,08,14,01,15,16.90
2016,08,14,01,16,16.90
2016,08,14,01,17,16.90
2016,08,14,01,18,16.90
2016,08,14,01,19,16.90
2016,08,14,01,20,16.80
2016,08,14,01,21,16.90
2016,08,14,01,22,16.90
2016,08,14,01,23,16.90
2016,08,14,01,24,16.90
2016,08,14,01,25,16.90
2016,08,14,01,26,16.90
2016,08,14,01,27,16.90
2016,08,14,01,28,16.90
2016,08,14,01,29,16.90
2016,08,14,01,30,16.90
2016,08,14,01,31,16.80
2016,08,14,01,32,16.80
2016,08,14,01,33,16.80
2016,08,14,01,34,16.80
2016,08,14,01,35,16.80
2016,08,14,01,36,16.80
2016,08,14,01,37,16.70
2016,08,14,01,38,16.70
2016,08,14,01,39,16.70
2016,08,14,01,40,16.60
2016,08,14,01,41,16.60
2016,08,14,01,42,16.50
2016,08,14,01,43,16.50
2016,08,14,01,44,16.40
2016,08,14,01,45,16.40
2016,08,14,01,46,16.40
2016,08,14,01,47,16.30
2016,08,14,01,48,16.30
2016,08,14,01,49,16.30
2016,08,14,01,50,16.30
2016,08,14,01,51,16.30
2016,08,14,01,52,16.30
2016,08,14,01,53,16.30
2016,08,14,01,54,16.30
2016,08,14,01,55,16.30
2016,08,14,01,56,16.30
2016,08,14,01,57,16.30
2016,08,14,01,58,16.30
2016,08,14,01,59,16.30
2016,08,14,02,00,16.30
2016,08,14,02,01,16.30
2016,08,14,02,02,16.30
2016,08,14,02,03,16.30
2016,08,14,02,04,16.30
2016,08,14,02,05,16.30
2016,08,14,02,06,16.20
2016,08,14,02,07,16.20
2016,08,14,02,08,16.20
2016,08,14,02,09,16.20
2016,08,14,02,10,16.20
2016,08,14,02,11,16.20
2016,08,14,02,12,16.10
2016,08,14,02,13,16.10
2016,08,14,02,14,16.10
2016,08,14,02,15,16.10
2016,08,14,02,16,16.00
2016,08,14,02,17,16.00
2016,08,14,02,18,16.00
2016,08,14,02,19,16.00
2016,08,14,02,20,15.90
2016,08,14,02,21,15.90
2016,08,14,02,22,15.90
2016,08,14,02,23,15.90
2016,08,14,02,24,15.90
2016,08,14,02,25,15.90
2016,08,14,02,26,15.80
2016,08,14,02,27,15.80
2016,08,14,02,28,15.80
2016,08,14,02,29,15.80
2016,08,14,02,30,15.80
2016,08,14,02,31,15.80
2016,08,14,02,32,15.80
2016,08,14,02,33,15.70
2016,08,14,02,34,15.70
2016,08,14,02,35,15.70
2016,08,14,02,36,15.70
2016,08,14,02,37,15.70
2016,08,14,02,38,15.60
2016,08,14,02,39,15.60
2016,08,14,02,40,15.60
2016,08,14,02,41,15.60
2016,08,14,02,42,15.60
2016,08,14,02,43,15.60
2016,08,14,02,44,15.50
2016,08,14,02,45,15.50
2016,08,14,02,46,15.50
2016,08,14,02,47,15.50
2016,08,14,02,48,15.40
2016,08,14,02,49,15.40
2016,08,14,02,50,15.40
2016,08,14,02,51,15.40
2016,08,14,02,52,15.40
2016,08,14,02,53,15.40
2016,08,14,02,54,15.40
2016,08,14,02,55,15.40
2016,08,14,02,56,15.40
2016,08,14,02,57,15.40
2016,08,14,02,58,15.40
2016,08,14,02,59,15.40
2016,08,14,03,00,15.50
2016,08,14,03,01,15.50
2016,08,14,03,02,15.50
2016,08,14,03,03,15.50
2016,08,14,03,04,15.50
2016,08,14,03,05,15.50
2016,08,14,03,06,15.50
2016,08,14,03,07,15.40
2016,08,14,03,08,15.40
2016,08,14,03,09,15.40
2016,08,14,03,10,15.40
2016,08,14,03,11,15.30
2016,08,14,03,12,15.30
2016,08,14,03,13,15.30
2016,08,14,03,14,15.30
2016,08,14,03,15,15.30
2016,08,14,03,16,15.40
2016,08,14,03,17,15.40
2016,08,14,03,18,15.40
2016,08,14,03,19,15.40
2016,08,14,03,20,15.40
2016,08,14,03,21,15.40
2016,08,14,03,22,15.40
2016,08,14,03,23,15.30
2016,08,14,03,24,15.30
2016,08,14,03,25,15.30
2016,08,14,03,26,15.20
2016,08,14,03,27,15.20
2016,08,14,03,28,15.20
2016,08,14,03,29,15.20
2016,08,14,03,30,15.20
2016,08,14,03,31,15.20
2016,08,14,03,32,15.20
2016,08,14,03,33,15.20
2016,08,14,03,34,15.20
2016,08,14,03,35,15.20
2016,08,14,03,36,15.20
2016,08,14,03,37,15.20
2016,08,14,03,38,15.20
2016,08,14,03,39,15.20
2016,08,14,03,40,15.20
2016,08,14,03,41,15.20
2016,08,14,03,42,15.20
2016,08,14,03,43,15.20
2016,08,14,03,44,15.20
2016,08,14,03,45,15.20
2016,08,14,03,46,15.20
2016,08,14,03,47,15.20
2016,08,14,03,48,15.20
2016,08,14,03,49,15.20
2016,08,14,03,50,15.20
2016,08,14,03,51,15.20
2016,08,14,03,52,15.20
2016,08,14,03,53,15.20
2016,08,14,03,54,15.20
2016,08,14,03,55,15.20
2016,08,14,03,56,15.20
2016,08,14,03,57,15.20
2016,08,14,03,58,15.20
2016,08,14,03,59,15.20
2016,08,14,04,00,15.20
2016,08,14,04,01,15.20
2016,08,14,04,02,15.20
2016,08,14,04,03,15.10
2016,08,14,04,04,15.10
2016,08,14,04,05,15.10
2016,08,14,04,06,15.10
2016,08,14,04,07,15.10
2016,08,14,04,08,15.10
2016,08,14,04,09,15.10
2016,08,14,04,10,15.00
2016,08,14,04,11,15.00
2016,08,14,04,12,15.00
2016,08,14,04,13,15.00
2016,08,14,04,14,15.00
2016,08,14,04,15,15.00
2016,08,14,04,16,15.00
2016,08,14,04,17,15.00
2016,08,14,04,18,15.00
2016,08,14,04,19,15.00
2016,08,14,04,20,15.00
2016,08,14,04,21,15.00
2016,08,14,04,22,15.00
2016,08,14,04,23,15.00
2016,08,14,04,24,15.00
2016,08,14,04,25,15.00
2016,08,14,04,26,15.00
2016,08,14,04,27,15.00
2016,08,14,04,28,15.00
2016,08,14,04,29,14.90
2016,08,14,04,30,14.90
2016,08,14,04,31,14.90
2016,08,14,04,32,14.90
2016,08,14,04,33,14.90
2016,08,14,04,34,14.90
2016,08,14,04,35,14.90
2016,08,14,04,36,14.90
2016,08,14,04,37,14.90
2016,08,14,04,38,14.90
2016,08,14,04,39,14.80
2016,08,14,04,40,14.80
2016,08,14,04,41,14.80
2016,08,14,04,42,14.80
2016,08,14,04,43,14.80
2016,08,14,04,44,14.80
2016,08,14,04,45,14.80
2016,08,14,04,46,14.80
2016,08,14,04,47,14.80
2016,08,14,04,48,14.80
2016,08,14,04,49,14.80
2016,08,14,04,50,14.80
2016,08,14,04,51,14.80
2016,08,14,04,52,14.80
2016,08,14,04,53,14.80
2016,08,14,04,54,14.80
2016,08,14,04,55,14.80
2016,08,14,04,56,14.70
2016,08,14,04,57,14.70
2016,08,14,04,58,14.70
2016,08,14,04,59,14.70
2016,08,14,05,00,14.70
2016,08,14,05,01,14.70
2016,08,14,05,02,14.70
2016,08,14,05,03,14.70
2016,08,14,05,04,14.70
2016,08,14,05,05,14.70
2016,08,14,05,06,14.70
2016,08,14,05,07,14.60
2016,08,14,05,08,14.60
2016,08,14,05,09,14.60
2016,08,14,05,10,14.60
2016,08,14,05,11,14.60
2016,08,14,05,12,14.60
2016,08,14,05,13,14.60
2016,08,14,05,14,14.60
2016,08,14,05,15,14.60
2016,08,14,05,16,14.60
2016,08,14,05,17,14.50
2016,08,14,05,18,14.50
2016,08,14,05,19,14.40
2016,08,14,05,20,14.40
2016,08,14,05,21,14.40
2016,08,14,05,22,14.30
2016,08,14,05,23,14.30
2016,08,14,05,24,14.30
2016,08,14,05,25,14.30
2016,08,14,05,26,14.30
2016,08,14,05,27,14.30
2016,08,14,05,28,14.30
2016,08,14,05,29,14.30
2016,08,14,05,30,14.30
2016,08,14,05,31,14.30
2016,08,14,05,32,14.30
2016,08,14,05,33,14.30
2016,08,14,05,34,14.30
2016,08,14,05,35,14.30
2016,08,14,05,36,14.30
2016,08,14,05,37,14.20
2016,08,14,05,38,14.20
2016,08,14,05,39,14.20
2016,08,14,05,40,14.10
2016,08,14,05,41,14.10
2016,08,14,05,42,14.10
2016,08,14,05,43,14.10
2016,08,14,05,44,14.10
2016,08,14,05,45,14.10
2016,08,14,05,46,14.10
2016,08,14,05,47,14.10
2016,08,14,05,48,14.10
2016,08,14,05,49,14.00
2016,08,14,05,50,14.00
2016,08,14,05,51,14.00
2016,08,14,05,52,14.00
2016,08,14,05,53,14.00
2016,08,14,05,54,13.90
2016,08,14,05,55,13.90
2016,08,14,05,56,13.90
2016,08,14,05,57,13.90
2016,08,14,05,58,13.90
2016,08,14,05,59,13.90
2016,08,14,06,00,13.90
2016,08,14,06,01,13.90
2016,08,14,06,02,13.90
2016,08,14,06,03,13.90
2016,08,14,06,04,13.80
2016,08,14,06,05,13.80
2016,08,14,06,06,13.80
2016,08,14,06,07,13.80
2016,08,14,06,08,13.80
2016,08,14,06,09,13.80
2016,08,14,06,10,13.80
2016,08,14,06,11,13.80
2016,08,14,06,12,13.80
2016,08,14,06,13,13.80
2016,08,14,06,14,13.80
2016,08,14,06,15,13.80
2016,08,14,06,16,13.80
2016,08,14,06,17,13.80
2016,08,14,06,18,13.80
2016,08,14,06,19,13.70
2016,08,14,06,20,13.70
2016,08,14,06,21,13.70
2016,08,14,06,22,13.70
2016,08,14,06,23,13.70
2016,08,14,06,24,13.70
2016,08,14,06,25,13.70
2016,08,14,06,26,13.70
2016,08,14,06,27,13.70
2016,08,14,06,28,13.70
2016,08,14,06,29,13.70
2016,08,14,06,30,13.70
2016,08,14,06,31,13.80
2016,08,14,06,32,13.80
2016,08,14,06,33,13.80
2016,08,14,06,34,13.80
2016,08,14,06,35,13.80
2016,08,14,06,36,13.80
2016,08,14,06,37,13.80
2016,08,14,06,38,13.80
2016,08,14,06,39,13.90
2016,08,14,06,40,13.90
2016,08,14,06,41,13.90
2016,08,14,06,42,13.90
2016,08,14,06,43,14.00
2016,08,14,06,44,14.00
2016,08,14,06,45,14.00
2016,08,14,06,46,14.10
2016,08,14,06,47,14.10
2016,08,14,06,48,14.10
2016,08,14,06,49,14.10
2016,08,14,06,50,14.20
2016,08,14,06,51,14.20
2016,08,14,06,52,14.30
2016,08,14,06,53,14.30
2016,08,14,06,54,14.40
2016,08,14,06,55,14.40
2016,08,14,06,56,14.50
2016,08,14,06,57,14.50
2016,08,14,06,58,14.50
2016,08,14,06,59,14.60
2016,08,14,07,00,14.60
2016,08,14,07,01,14.60
2016,08,14,07,02,14.60
2016,08,14,07,03,14.70
2016,08,14,07,04,14.70
2016,08,14,07,05,14.70
2016,08,14,07,06,14.70
2016,08,14,07,07,14.70
2016,08,14,07,08,14.80
2016,08,14,07,09,14.80
2016,08,14,07,10,14.80
2016,08,14,07,11,14.80
2016,08,14,07,12,14.90
2016,08,14,07,13,14.90
2016,08,14,07,14,14.90
2016,08,14,07,15,14.90
2016,08,14,07,16,15.00
2016,08,14,07,17,15.00
2016,08,14,07,18,15.00
2016,08,14,07,19,15.10
2016,08,14,07,20,15.10
2016,08,14,07,21,15.10
2016,08,14,07,22,15.20
2016,08,14,07,23,15.20
2016,08,14,07,24,15.20
2016,08,14,07,25,15.30
2016,08,14,07,26,15.30
2016,08,14,07,27,15.40
2016,08,14,07,28,15.40
2016,08,14,07,29,15.40
2016,08,14,07,30,15.50
2016,08,14,07,31,15.50
2016,08,14,07,32,15.60
2016,08,14,07,33,15.60
2016,08,14,07,34,15.60
2016,08,14,07,35,15.70
2016,08,14,07,36,15.70
2016,08,14,07,37,15.80
2016,08,14,07,38,15.80
2016,08,14,07,39,15.90
2016,08,14,07,40,15.90
2016,08,14,07,41,16.00
2016,08,14,07,42,16.10
2016,08,14,07,43,16.10
2016,08,14,07,44,16.10
2016,08,14,07,45,16.20
2016,08,14,07,46,16.20
2016,08,14,07,47,16.20
2016,08,14,07,48,16.30
2016,08,14,07,49,16.30
2016,08,14,07,50,16.30
2016,08,14,07,51,16.30
2016,08,14,07,52,16.40
2016,08,14,07,53,16.40
2016,08,14,07,54,16.40
2016,08,14,07,55,16.50
2016,08,14,07,56,16.50
2016,08,14,07,57,16.60
2016,08,14,07,58,16.60
2016,08,14,07,59,16.70
2016,08,14,08,00,16.70
2016,08,14,08,01,16.80
2016,08,14,08,02,16.80
2016,08,14,08,03,16.80
2016,08,14,08,04,16.90
2016,08,14,08,05,16.90
2016,08,14,08,06,16.90
2016,08,14,08,07,17.00
2016,08,14,08,08,17.00
2016,08,14,08,09,17.00
2016,08,14,08,10,17.00
2016,08,14,08,11,17.10
2016,08,14,08,12,17.10
2016,08,14,08,13,17.10
2016,08,14,08,14,17.10
2016,08,14,08,15,17.10
2016,08,14,08,16,17.10
2016,08,14,08,17,17.10
2016,08,14,08,18,17.10
2016,08,14,08,19,17.10
2016,08,14,08,20,17.10
2016,08,14,08,21,17.20
2016,08,14,08,22,17.20
2016,08,14,08,23,17.20
2016,08,14,08,24,17.20
2016,08,14,08,25,17.20
2016,08,14,08,26,17.20
2016,08,14,08,27,17.30
2016,08,14,08,28,17.30
2016,08,14,08,29,17.30
2016,08,14,08,30,17.40
2016,08,14,08,31,17.40
2016,08,14,08,32,17.40
2016,08,14,08,33,17.40
2016,08,14,08,34,17.50
2016,08,14,08,35,17.50
2016,08,14,08,36,17.60
2016,08,14,08,37,17.60
2016,08,14,08,38,17.70
2016,08,14,08,39,17.70
2016,08,14,08,40,17.70
2016,08,14,08,41,17.70
2016,08,14,08,42,17.70
2016,08,14,08,43,17.70
2016,08,14,08,44,17.80
2016,08,14,08,45,17.80
2016,08,14,08,46,17.90
2016,08,14,08,47,17.90
2016,08,14,08,48,18.00
2016,08,14,08,49,18.10
2016,08,14,08,50,18.10
2016,08,14,08,51,18.10
2016,08,14,08,52,18.10
2016,08,14,08,53,18.10
2016,08,14,08,54,18.10
2016,08,14,08,55,18.10
2016,08,14,08,56,18.00
2016,08,14,08,57,18.00
2016,08,14,08,58,18.00
2016,08,14,08,59,17.90
2016,08,14,09,00,17.90
2016,08,14,09,01,17.90
2016,08,14,09,02,17.90
2016,08,14,09,03,17.90
2016,08,14,09,04,17.90
2016,08,14,09,05,17.90
2016,08,14,09,06,17.90
2016,08,14,09,07,17.80
2016,08,14,09,08,17.80
2016,08,14,09,09,17.70
2016,08,14,09,10,17.70
2016,08,14,09,11,17.70
2016,08,14,09,12,17.60
2016,08,14,09,13,17.60
2016,08,14,09,14,17.60
2016,08,14,09,15,17.70
2016,08,14,09,16,17.70
2016,08,14,09,17,17.70
2016,08,14,09,18,17.80
2016,08,14,09,19,17.80
2016,08,14,09,20,17.90
2016,08,14,09,21,18.00
2016,08,14,09,22,18.10
2016,08,14,09,23,18.20
2016,08,14,09,24,18.30
2016,08,14,09,25,18.30
2016,08,14,09,26,18.40
2016,08,14,09,27,18.50
2016,08,14,09,28,18.50
2016,08,14,09,29,18.60
2016,08,14,09,30,18.70
2016,08,14,09,31,18.80
2016,08,14,09,32,18.90
2016,08,14,09,33,19.00
2016,08,14,09,34,19.10
2016,08,14,09,35,19.20
2016,08,14,09,36,19.20
2016,08,14,09,37,19.30
2016,08,14,09,38,19.40
2016,08,14,09,39,19.40
2016,08,14,09,40,19.50
2016,08,14,09,41,19.50
2016,08,14,09,42,19.60
2016,08,14,09,43,19.60
2016,08,14,09,44,19.60
2016,08,14,09,45,19.60
2016,08,14,09,46,19.60
2016,08,14,09,47,19.60
2016,08,14,09,48,19.60
2016,08,14,09,49,19.60
2016,08,14,09,50,19.70
2016,08,14,09,51,19.70
2016,08,14,09,52,19.60
2016,08,14,09,53,19.60
2016,08,14,09,54,19.60
2016,08,14,09,55,19.60
2016,08,14,09,56,19.60
2016,08,14,09,57,19.60
2016,08,14,09,58,19.60
2016,08,14,09,59,19.70
2016,08,14,10,00,19.70
2016,08,14,10,01,19.70
2016,08,14,10,02,19.80
2016,08,14,10,03,19.80
2016,08,14,10,04,19.80
2016,08,14,10,05,19.80
2016,08,14,10,06,19.90
2016,08,14,10,07,19.90
2016,08,14,10,08,19.90
2016,08,14,10,09,19.90
2016,08,14,10,10,19.90
2016,08,14,10,11,19.90
2016,08,14,10,12,19.90
2016,08,14,10,13,20.00
2016,08,14,10,14,20.10
2016,08,14,10,15,20.20
2016,08,14,10,16,20.30
2016,08,14,10,17,20.40
2016,08,14,10,18,20.50
2016,08,14,10,19,20.60
2016,08,14,10,20,20.60
2016,08,14,10,21,20.60
2016,08,14,10,22,20.70
2016,08,14,10,23,20.70
2016,08,14,10,24,20.70
2016,08,14,10,25,20.70
2016,08,14,10,26,20.70
2016,08,14,10,27,20.80
2016,08,14,10,28,20.80
2016,08,14,10,29,20.80
2016,08,14,10,30,20.80
2016,08,14,10,31,20.80
2016,08,14,10,32,20.80
2016,08,14,10,33,20.80
2016,08,14,10,34,20.80
2016,08,14,10,35,20.80
2016,08,14,10,36,20.80
2016,08,14,10,37,20.90
2016,08,14,10,38,20.90
2016,08,14,10,39,21.00
2016,08,14,10,40,21.00
2016,08,14,10,41,21.00
2016,08,14,10,42,20.90
2016,08,14,10,43,20.90
2016,08,14,10,44,20.90
2016,08,14,10,45,20.90
2016,08,14,10,46,20.80
2016,08,14,10,47,20.80
2016,08,14,10,48,20.80
2016,08,14,10,49,20.90
2016,08,14,10,50,20.90
2016,08,14,10,51,20.90
2016,08,14,10,52,20.90
2016,08,14,10,53,20.90
2016,08,14,10,54,20.90
2016,08,14,10,55,20.90
2016,08,14,10,56,20.90
2016,08,14,10,57,20.90
2016,08,14,10,58,21.00
2016,08,14,10,59,21.00
2016,08,14,11,00,21.10
2016,08,14,11,01,21.20
2016,08,14,11,02,21.20
2016,08,14,11,03,21.20
2016,08,14,11,04,21.20
2016,08,14,11,05,21.20
2016,08,14,11,06,21.20
2016,08,14,11,07,21.30
2016,08,14,11,08,21.30
2016,08,14,11,09,21.50
2016,08,14,11,10,21.60
2016,08,14,11,11,21.70
2016,08,14,11,12,21.90
2016,08,14,11,13,22.00
2016,08,14,11,14,22.20
2016,08,14,11,15,22.30
2016,08,14,11,16,22.40
2016,08,14,11,17,22.40
2016,08,14,11,18,22.40
2016,08,14,11,19,22.40
2016,08,14,11,20,22.50
2016,08,14,11,21,22.50
2016,08,14,11,22,22.40
2016,08,14,11,23,22.40
2016,08,14,11,24,22.40
2016,08,14,11,25,22.40
2016,08,14,11,26,22.40
2016,08,14,11,27,22.40
2016,08,14,11,28,22.30
2016,08,14,11,29,22.30
2016,08,14,11,30,22.30
2016,08,14,11,31,22.20
2016,08,14,11,32,22.20
2016,08,14,11,33,22.20
2016,08,14,11,34,22.20
2016,08,14,11,35,22.20
2016,08,14,11,36,22.20
2016,08,14,11,37,22.20
2016,08,14,11,38,22.20
2016,08,14,11,39,22.30
2016,08,14,11,40,22.30
2016,08,14,11,41,22.40
2016,08,14,11,42,22.40
2016,08,14,11,43,22.40
2016,08,14,11,44,22.40
2016,08,14,11,45,22.40
2016,08,14,11,46,22.50
2016,08,14,11,47,22.50
2016,08,14,11,48,22.60
2016,08,14,11,49,22.60
2016,08,14,11,50,22.60
2016,08,14,11,51,22.50
2016,08,14,11,52,22.50
2016,08,14,11,53,22.40
2016,08,14,11,54,22.40
2016,08,14,11,55,22.30
2016,08,14,11,56,22.20
2016,08,14,11,57,22.10
2016,08,14,11,58,22.10
2016,08,14,11,59,22.10
2016,08,14,12,00,22.10
2016,08,14,12,01,22.10
2016,08,14,12,02,22.10
2016,08,14,12,03,22.00
2016,08,14,12,04,22.00
2016,08,14,12,05,22.00
2016,08,14,12,06,22.00
2016,08,14,12,07,22.00
2016,08,14,12,08,22.10
2016,08,14,12,09,22.10
2016,08,14,12,10,22.10
2016,08,14,12,11,22.10
2016,08,14,12,12,22.10
2016,08,14,12,13,22.20
2016,08,14,12,14,22.20
2016,08,14,12,15,22.20
2016,08,14,12,16,22.20
2016,08,14,12,17,22.20
2016,08,14,12,18,22.20
2016,08,14,12,19,22.10
2016,08,14,12,20,22.10
2016,08,14,12,21,22.10
2016,08,14,12,22,22.10
2016,08,14,12,23,22.10
2016,08,14,12,24,22.20
2016,08,14,12,25,22.20
2016,08,14,12,26,22.20
2016,08,14,12,27,22.20
2016,08,14,12,28,22.20
2016,08,14,12,29,22.20
2016,08,14,12,30,22.20
2016,08,14,12,31,22.20
2016,08,14,12,32,22.30
2016,08,14,12,33,22.30
2016,08,14,12,34,22.40
2016,08,14,12,35,22.40
2016,08,14,12,36,22.40
2016,08,14,12,37,22.40
2016,08,14,12,38,22.40
2016,08,14,12,39,22.40
2016,08,14,12,40,22.50
2016,08,14,12,41,22.60
2016,08,14,12,42,22.60
2016,08,14,12,43,22.60
2016,08,14,12,44,22.60
2016,08,14,12,45,22.70
2016,08,14,12,46,22.70
2016,08,14,12,47,22.80
2016,08,14,12,48,22.80
2016,08,14,12,49,22.80
2016,08,14,12,50,22.90
2016,08,14,12,51,22.90
2016,08,14,12,52,23.00
2016,08,14,12,53,23.00
2016,08,14,12,54,23.00
2016,08,14,12,55,23.00
2016,08,14,12,56,22.90
2016,08,14,12,57,22.90
2016,08,14,12,58,22.80
2016,08,14,12,59,22.80
2016,08,14,13,00,22.80
2016,08,14,13,01,22.70
2016,08,14,13,02,22.70
2016,08,14,13,03,22.70
2016,08,14,13,04,22.70
2016,08,14,13,05,22.80
2016,08,14,13,06,22.80
2016,08,14,13,07,22.80
2016,08,14,13,08,22.80
2016,08,14,13,09,22.80
2016,08,14,13,10,22.80
2016,08,14,13,11,22.90
2016,08,14,13,12,22.90
2016,08,14,13,13,22.90
2016,08,14,13,14,22.90
2016,08,14,13,15,22.90
2016,08,14,13,16,23.00
2016,08,14,13,17,23.00
2016,08,14,13,18,23.00
2016,08,14,13,19,23.00
2016,08,14,13,20,23.10
2016,08,14,13,21,23.10
2016,08,14,13,22,23.10
2016,08,14,13,23,23.10
2016,08,14,13,24,23.10
2016,08,14,13,25,23.10
2016,08,14,13,26,23.10
2016,08,14,13,27,23.10
2016,08,14,13,28,23.10
2016,08,14,13,29,23.10
2016,08,14,13,30,23.10
2016,08,14,13,31,23.10
2016,08,14,13,32,23.10
2016,08,14,13,33,23.10
2016,08,14,13,34,23.20
2016,08,14,13,35,23.20
2016,08,14,13,36,23.20
2016,08,14,13,37,23.20
2016,08,14,13,38,23.30
2016,08,14,13,39,23.30
2016,08,14,13,40,23.30
2016,08,14,13,41,23.30
2016,08,14,13,42,23.40
2016,08,14,13,43,23.40
2016,08,14,13,44,23.40
2016,08,14,13,45,23.40
2016,08,14,13,46,23.40
2016,08,14,13,47,23.40
2016,08,14,13,48,23.40
2016,08,14,13,49,23.50
2016,08,14,13,50,23.50
2016,08,14,13,51,23.50
2016,08,14,13,52,23.50
2016,08,14,13,53,23.50
2016,08,14,13,54,23.60
2016,08,14,13,55,23.70
2016,08,14,13,56,23.80
2016,08,14,13,57,23.80
2016,08,14,13,58,23.70
2016,08,14,13,59,23.70
2016,08,14,14,00,23.70
2016,08,14,14,01,23.70
2016,08,14,14,02,23.60
2016,08,14,14,03,23.50
2016,08,14,14,04,23.40
2016,08,14,14,05,23.30
2016,08,14,14,06,23.30
2016,08,14,14,07,23.30
2016,08,14,14,08,23.30
2016,08,14,14,09,23.30
2016,08,14,14,10,23.30
2016,08,14,14,11,23.30
2016,08,14,14,12,23.30
2016,08,14,14,13,23.20
2016,08,14,14,14,23.20
2016,08,14,14,15,23.30
2016,08,14,14,16,23.30
2016,08,14,14,17,23.30
2016,08,14,14,18,23.30
2016,08,14,14,19,23.40
2016,08,14,14,20,23.40
2016,08,14,14,21,23.40
2016,08,14,14,22,23.40
2016,08,14,14,23,23.40
2016,08,14,14,24,23.40
2016,08,14,14,25,23.40
2016,08,14,14,26,23.40
2016,08,14,14,27,23.50
2016,08,14,14,28,23.60
2016,08,14,14,29,23.60
2016,08,14,14,30,23.70
2016,08,14,14,31,23.70
2016,08,14,14,32,23.70
2016,08,14,14,33,23.80
2016,08,14,14,34,23.80
2016,08,14,14,35,23.80
2016,08,14,14,36,23.80
2016,08,14,14,37,23.80
2016,08,14,14,38,23.90
2016,08,14,14,39,24.00
2016,08,14,14,40,24.00
2016,08,14,14,41,24.10
2016,08,14,14,42,24.10
2016,08,14,14,43,24.00
2016,08,14,14,44,23.90
2016,08,14,14,45,23.80
2016,08,14,14,46,23.70
2016,08,14,14,47,23.60
2016,08,14,14,48,23.60
2016,08,14,14,49,23.60
2016,08,14,14,50,23.60
2016,08,14,14,51,23.60
2016,08,14,14,52,23.60
2016,08,14,14,53,23.60
2016,08,14,14,54,23.60
2016,08,14,14,55,23.70
2016,08,14,14,56,23.60
2016,08,14,14,57,23.60
2016,08,14,14,58,23.60
2016,08,14,14,59,23.60
2016,08,14,15,00,23.60
2016,08,14,15,01,23.50
2016,08,14,15,02,23.50
2016,08,14,15,03,23.40
2016,08,14,15,04,23.40
2016,08,14,15,05,23.40
2016,08,14,15,06,23.40
2016,08,14,15,07,23.50
2016,08,14,15,08,23.60
2016,08,14,15,09,23.60
2016,08,14,15,10,23.70
2016,08,14,15,11,23.70
2016,08,14,15,12,23.70
2016,08,14,15,13,23.80
2016,08,14,15,14,23.90
2016,08,14,15,15,23.90
2016,08,14,15,16,23.90
2016,08,14,15,17,23.90
2016,08,14,15,18,23.80
2016,08,14,15,19,23.80
2016,08,14,15,20,23.80
2016,08,14,15,21,23.70
2016,08,14,15,22,23.70
2016,08,14,15,23,23.70
2016,08,14,15,24,23.80
2016,08,14,15,25,23.80
2016,08,14,15,26,23.80
2016,08,14,15,27,23.90
2016,08,14,15,28,24.00
2016,08,14,15,29,24.00
2016,08,14,15,30,24.10
2016,08,14,15,31,24.10
2016,08,14,15,32,24.10
2016,08,14,15,33,24.10
2016,08,14,15,34,24.10
2016,08,14,15,35,24.10
2016,08,14,15,36,24.20
2016,08,14,15,37,24.20
2016,08,14,15,38,24.30
2016,08,14,15,39,24.30
2016,08,14,15,40,24.40
2016,08,14,15,41,24.50
2016,08,14,15,42,24.60
2016,08,14,15,43,24.70
2016,08,14,15,44,24.70
2016,08,14,15,45,24.70
2016,08,14,15,46,24.60
2016,08,14,15,47,24.60
2016,08,14,15,48,24.50
2016,08,14,15,49,24.50
2016,08,14,15,50,24.60
2016,08,14,15,51,24.70
2016,08,14,15,52,24.80
2016,08,14,15,53,24.80
2016,08,14,15,54,24.80
2016,08,14,15,55,24.70
2016,08,14,15,56,24.50
2016,08,14,15,57,24.30
2016,08,14,15,58,24.10
2016,08,14,15,59,23.80
2016,08,14,16,00,23.60
2016,08,14,16,01,23.40
2016,08,14,16,02,23.20
2016,08,14,16,03,23.10
2016,08,14,16,04,23.00
2016,08,14,16,05,22.90
2016,08,14,16,06,22.80
2016,08,14,16,07,22.80
2016,08,14,16,08,22.80
2016,08,14,16,09,22.90
2016,08,14,16,10,22.90
2016,08,14,16,11,23.00
2016,08,14,16,12,23.10
2016,08,14,16,13,23.10
2016,08,14,16,14,23.10
2016,08,14,16,15,23.20
2016,08,14,16,16,23.20
2016,08,14,16,17,23.20
2016,08,14,16,18,23.10
2016,08,14,16,19,23.10
2016,08,14,16,20,23.00
2016,08,14,16,21,22.90
2016,08,14,16,22,22.90
2016,08,14,16,23,22.80
2016,08,14,16,24,22.80
2016,08,14,16,25,22.90
2016,08,14,16,26,22.90
2016,08,14,16,27,22.90
2016,08,14,16,28,23.00
2016,08,14,16,29,23.00
2016,08,14,16,30,23.10
2016,08,14,16,31,23.10
2016,08,14,16,32,23.20
2016,08,14,16,33,23.20
2016,08,14,16,34,23.20
2016,08,14,16,35,23.20
2016,08,14,16,36,23.20
2016,08,14,16,37,23.20
2016,08,14,16,38,23.20
2016,08,14,16,39,23.10
2016,08,14,16,40,23.00
2016,08,14,16,41,22.90
2016,08,14,16,42,22.80
2016,08,14,16,43,22.70
2016,08,14,16,44,22.60
2016,08,14,16,45,22.50
2016,08,14,16,46,22.40
2016,08,14,16,47,22.40
2016,08,14,16,48,22.40
2016,08,14,16,49,22.30
2016,08,14,16,50,22.30
2016,08,14,16,51,22.30
2016,08,14,16,52,22.30
2016,08,14,16,53,22.30
2016,08,14,16,54,22.30
2016,08,14,16,55,22.30
2016,08,14,16,56,22.20
2016,08,14,16,57,22.20
2016,08,14,16,58,22.20
2016,08,14,16,59,22.20
2016,08,14,17,00,22.10
2016,08,14,17,01,21.90
2016,08,14,17,02,21.70
2016,08,14,17,03,21.60
2016,08,14,17,04,21.40
2016,08,14,17,05,21.30
2016,08,14,17,06,21.20
2016,08,14,17,07,21.20
2016,08,14,17,08,21.20
2016,08,14,17,09,21.20
2016,08,14,17,10,21.20
2016,08,14,17,11,21.20
2016,08,14,17,12,21.20
2016,08,14,17,13,21.10
2016,08,14,17,14,21.00
2016,08,14,17,15,20.90
2016,08,14,17,16,20.70
2016,08,14,17,17,20.60
2016,08,14,17,18,20.50
2016,08,14,17,19,20.40